Terug naar catalogus

SL-12 R/B(2)

ActiefGEO
NORAD 28704·ROCKET BODY·🇷🇺 Russia

Gelanceerd Jun 24, 2005 vanaf Baikonur Cosmodrome

Loading…

TLE

VersSource: Space-Track

Epoch: Sep 13, 2026, 23:59 UTC

1 28704U 05023H   26256.99956130  .00000104  00000-0  00000-0 0  9999
2 28704  12.9991  18.1560 0011027 329.3761  18.9166  1.00806650 78098

Volg SL-12 R/B(2) in realtime met AllMySat

Download on the App Store